FLOCK 2K-17

Last updated on Wed Feb 14 2018 16:20:54 GMT+0000 (Coordinated Universal Time)

1 42888U 17042BR 18044.89730682 .00002225 00000-0 66381-4 0 9993 2 42888 96.9924 307.7770 0012470 177.5868 182.5439 15.35562123 32716
UTC large
Height (km)
Speed (km/s)
/
Latitude / Longitude
Inclination (degrees)
Orbital Period (minutes)
Azimuth
Elevation
Range (km)
Doppler Factor

Next 0 passes for location: London (51.5072 / 0.1276)

Sorry there are no passes over London.